Tracking 22081 objects as of 4-Dec-2020
HD Live streaming from Space Station
objects crossing your sky now

HARBINGER

Track HARBINGER now!
10-day predictions


NORAD ID: 44229
Int'l Code: 2019-026E
Perigee: 503.6 km
Apogee: 513.9 km
Inclination: 40.0 °
Period: 94.6 minutes
Semi major axis: 6879 km
RCS: Unknown
Launch date: May 5, 2019
Source: United States (US)
Launch site: Rocket Lab Launch Complex (RLLC)
aabbcc
Your satellite tracking list
Your tracking list is empty




NASA's NSSDC Master Catalog

Two Line Element Set (TLE):
1 44229U 19026E   20338.57349458  .00002761  00000-0  12831-3 0  9994
2 44229  40.0187  88.8235 0007511 218.2232 141.8036 15.21412615 88042
Source of the keplerian elements: AFSPC